Regional Weather Roundup
Issued by NWS Little Rock, AR

Home | Current Version | Previous Version | Graphics & Text | Print | Product List | Glossary On
Versions: 1 2 3 4 5 6 7 8 9 10 11 12 13 14 15 16 17 18 19 20 21 22 23 24 25 26 27 28 29 30 31 32 33 34 35 36 37 38 39 40 41 42 43 44 45 46 47 48 49 50
000
ASUS44 KLZK 230005
RWRLZK

WEATHER ROUNDUP FOR ARKANSAS
NATIONAL WEATHER SERVICE LITTLE ROCK AR
600 PM CST SAT NOV 22 2014

NOTE: "FAIR" INDICATES FEW OR NO CLOUDS BELOW 12,000 FEET WITH NO
SIGNIFICANT WEATHER AND/OR OBSTRUCTIONS TO VISIBILITY.

ARZ001-003-010-029-230100-
NORTHWEST ARKANSAS

CITY           SKY/WX    TMP DP  RH WIND       PRES   REMARKS
FAYETTEVILLE   LGT RAIN  52  52 100 S9        29.92F
6HR MIN TEMP:  51; 6HR MAX TEMP:  53; 6HR PCP:  0.49;

FORT SMITH     CLOUDY    54  52  93 E7        29.95F
6HR MIN TEMP:  53; 6HR MAX TEMP:  54; 6HR PCP:  0.88;

HARRISON       CLOUDY    51  51 100 S8        29.94S
6HR MIN TEMP:  51; 6HR MAX TEMP:  53; 6HR PCP:  0.42;

BENTONVILLE    CLOUDY    54  50  87 S23G32    29.86R
6HR MIN TEMP:  54; 6HR MAX TEMP:  55; 6HR PCP:  0.74;

ROGERS         LGT RAIN  54  52  93 S25G40    29.86S
6HR MIN TEMP:  52; 6HR MAX TEMP:  54; 6HR PCP:  0.68;

SILOAM SPGS    CLOUDY   N/A N/A N/A S30G39    29.84F
6HR MIN TEMP:  52; 6HR MAX TEMP:  54;

HIGHFILL       LGT RAIN  54  50  87 S24G32    29.85F
6HR MIN TEMP:  52; 6HR MAX TEMP:  54; 6HR PCP:  0.75;

SPRINGDALE     CLOUDY    54  52  94 S10       29.93S
$$

ARZ004-005-016-230100-
NORTH CENTRAL ARKANSAS

CITY           SKY/WX    TMP DP  RH WIND       PRES   REMARKS
BATESVILLE     MOCLDY    54  48  82 E3        30.02R
6HR MIN TEMP:  54; 6HR MAX TEMP:  61;

FLIPPIN        CLOUDY    52  46  82 SE6       29.98S
6HR MIN TEMP:  52; 6HR MAX TEMP:  54; 6HR PCP:  0.39;

MTN HOME       CLOUDY    51  51 100 SE8       29.97F
6HR MIN TEMP:  51; 6HR MAX TEMP:  53; 6HR PCP:  0.40;

$$

ARZ040-041-230100-
WEST CENTRAL ARKANSAS

CITY           SKY/WX    TMP DP  RH WIND       PRES   REMARKS
MENA           CLOUDY    55  55 100 CALM      29.96S
MOUNT IDA      FOG       55  53  93 CALM      29.95F VSB 3/4
6HR MIN TEMP:  55; 6HR MAX TEMP:  62;

$$

ARZ009-017-025-026-028-230100-
NORTHEAST ARKANSAS

CITY           SKY/WX    TMP DP  RH WIND       PRES   REMARKS
CORNING        CLOUDY    57  46  67 S8        30.03R
JONESBORO      MOCLDY    59  45  59 S8        30.02F
6HR MIN TEMP:  58; 6HR MAX TEMP:  67;

NEWPORT        MOCLDY    56  48  74 CALM      30.03R
6HR MIN TEMP:  55; 6HR MAX TEMP:  65;

WALNUT RIDGE   CLOUDY    57  45  62 S6        30.03R
6HR MIN TEMP:  57; 6HR MAX TEMP:  64;

BLYTHEVILLE    MOCLDY    68  41  37 S10       30.04F
6HR MIN TEMP:  68; 6HR MAX TEMP:  78;

$$

ARZ022-023-033-042-044-230100-
CENTRAL ARKANSAS

CITY           SKY/WX    TMP DP  RH WIND       PRES   REMARKS
LITTLE ROCK    CLOUDY    56  50  80 NE5       30.00S
6HR MIN TEMP:  56; 6HR MAX TEMP:  67;

N LITTLE ROCK  CLOUDY    56  53  90 NE3       30.00S
6HR MIN TEMP:  56; 6HR MAX TEMP:  65;

JACKSONVILLE   MOCLDY    55  51  87 NE2       30.00S
6HR MIN TEMP:  55; 6HR MAX TEMP:  66;

SEARCY         MOCLDY    56  51  84 CALM      30.03R
6HR MIN TEMP:  56; 6HR MAX TEMP:  64;

HOT SPRINGS    CLOUDY    59  53  80 E5        29.97F
6HR MIN TEMP:  56; 6HR MAX TEMP:  66;

RUSSELLVILLE   CLOUDY    54  53  97 CALM      29.98F FOG
6HR MIN TEMP:  53; 6HR MAX TEMP:  59; 6HR PCP:  0.10;

CLINTON        FOG       50  50 100 CALM      30.03S VSB 1/4
$$

ARZ036-230100-
EAST ARKANSAS

CITY           SKY/WX    TMP DP  RH WIND       PRES   REMARKS
WEST MEMPHIS   CLOUDY    56  44  64 CALM      30.03S
6HR MIN TEMP:  53; 6HR MAX TEMP:  67;

$$

ARZ050-053-066-070-073-230100-
SOUTHWEST ARKANSAS

CITY           SKY/WX    TMP DP  RH WIND       PRES   REMARKS
ARKADELPHIA    CLOUDY    61  57  86 CALM      29.96F
6HR MIN TEMP:  61; 6HR MAX TEMP:  71;

CAMDEN         CLOUDY    63  54  72 NE3       29.96F
TEXARKANA      CLOUDY    64  57  78 SE5       29.93F
6HR MIN TEMP:  64; 6HR MAX TEMP:  71;

EL DORADO      CLOUDY    62  56  80 E7        29.96F
6HR MIN TEMP:  62; 6HR MAX TEMP:  72;

DE QUEEN       CLOUDY    60  57  89 VRB3      29.92S
6HR MIN TEMP:  59; 6HR MAX TEMP:  64;

$$

ARZ056-057-069-230100-
SOUTHEAST ARKANSAS

CITY           SKY/WX    TMP DP  RH WIND       PRES   REMARKS
PINE BLUFF     CLOUDY    63  53  70 SE8       30.00S
6HR MIN TEMP:  63; 6HR MAX TEMP:  70;

STUTTGART      MOCLDY    57  50  77 SE5       30.02R
6HR MIN TEMP:  57; 6HR MAX TEMP:  66;

MONTICELLO     CLOUDY    63  55  75 CALM      30.01S
6HR MIN TEMP:  63; 6HR MAX TEMP:  71;


$$





USA.gov is the U.S. government's official web portal to all federal, state and local government web resources and services.